Find Starlink 32125

NORAD ID: 60260 Int'l Des: 2024-131 Owner: SPXS Country: US Constellation: starlink operational
LEOCIRCULAR

Current View

Loading 3D Globe...

About Starlink 32125

Starlink 32125 (NORAD 60260) is a starlink constellation satellite (v2 mini) launched Jul 27, 2024 by SPXS of US. It operates in LEO, CIRCULAR orbit with a mass of 730.00 kg.

Upcoming Passes

Passes for default location (London). Set your location on the main map for personalized predictions.

Altitude History

Loading altitude history...

Two-Line Element Set

1 60260U 24131F 26236.35657088 -.00000258 00000-0 35124-5 0 9992
2 60260 53.1615 352.6173 0001169 88.6649 271.4488 15.34383766117405
Epoch: Aug 24, 2026 • Age: 29 hours

Current Status

Altitude 462.7 km
Apogee / Perigee N/A
Velocity 7.64 km/s
Sub-Earth Point 15.18°N, 19.41°W
Launch Date Jul 27, 2024
Age 2 years
Type internet

Technical Details

Classification Payload
Mass 730.00 kg
Dry Mass 700.00 kg
Total Mass 730.00 kg
Length 0.30 m
Diameter 4.10 m
Span 29.00 m
Shape Box + pan
Manufacturer SPXS
Bus Type Starlink V2M
Phase Status In Orbit
Owner/State SPXS/US

Most Searched